[[{"header":{"parameterUnit":"m.s-1","parameterCategory":1,"la1":30.2991,"la2":30.254,"lo1":-89.0895,"lo2":-89.0444,"dy":0.0017,"dx":0.0017,"nx":28,"ny":28,"refTime":"2026-02-05T03:00:00:Z","depth":0,"parameterNumber":2,"parameterNumberName":"U-component_of_WINDS"},"data":[0,0,0,0,0,0,0,0,0,0,0,0,0,0,0,0,0,0,0,0,0,0,0,0,0,0,0,0,0,0,0,0,0,0,0,0,0,0,0,0,0,0,0,0,0,0,0,0,0,0,0,0,0,0,0,0,0,0,2.1885,2.1884,0,2.1816,2.1816,2.1815,2.1754,2.1753,2.1753,2.1752,2.1677,2.1676,2.1674,0,0,0,0,0,0,0,0,0,0,0,0,0,2.1961,2.196,2.1885,2.1884,2.1883,2.1816,2.1815,2.1815,2.1754,2.1753,2.1753,2.1752,2.1677,2.1676,2.1674,0,0,0,0,0,0,0,0,0,0,0,0,0,2.1914,2.1959,2.1885,2.1845,2.1841,2.1817,2.1815,2.1814,2.1754,2.1753,2.1752,2.1751,2.1678,2.1676,2.1674,2.1682,0,0,2.1668,2.1667,0,0,0,0,0,0,0,0,2.1916,2.1911,2.1852,2.1848,2.1843,2.1793,2.1815,2.177,2.1755,2.1787,2.1752,2.1751,2.1716,2.1711,2.17,2.1678,2.1675,2.1667,2.1666,2.1665,2.1665,0,0,0,0,0,0,0,2.192,2.1913,2.1858,2.1851,2.1846,2.183,2.1822,2.1806,2.1758,2.1784,2.178,2.1773,2.1713,2.1702,2.1698,2.1674,2.1668,2.1666,2.1664,2.1664,2.1656,2.1657,0,0,0,0,0,0,2.193,2.1917,2.186,2.1856,2.1878,2.1829,2.182,2.181,2.1758,2.1749,2.1774,2.177,2.1706,2.17,2.1695,2.1701,2.1665,2.1663,2.1662,2.1655,2.1656,2.1657,0,0,0,0,0,0,2.1932,2.1925,2.1863,2.1885,2.1876,2.1829,2.1818,2.1809,2.1798,2.175,2.1741,2.1771,2.1705,2.1698,2.1686,2.1697,2.1663,2.1661,2.1654,2.1655,2.1657,2.1713,0,0,0,0,0,0,2.1934,2.1926,2.1929,2.1886,2.1875,2.1856,2.1818,2.1809,2.1795,2.179,2.1745,2.1737,2.1704,2.1689,2.1684,2.1694,2.1659,2.1653,2.1655,2.1656,2.171,2.1716,2.1722,0,0,0,0,0,2.1937,2.1947,2.193,2.1923,2.1878,2.1857,2.1851,2.1814,2.1796,2.1799,2.1768,2.1738,2.1698,2.1689,2.1682,2.1692,2.1652,2.1654,2.1656,2.1707,2.1715,2.1722,0,0,0,0,0,0,2.1991,2.194,2.1921,2.1917,2.1892,2.1847,2.1848,2.1823,2.1801,2.1797,2.175,2.1741,2.1734,2.1712,2.1703,2.1697,2.1671,2.1672,2.1712,2.1719,2.1724,2.1729,2.1657,0,0,0,0,0,2.2003,2.1992,2.1947,2.1948,2.1937,2.1895,2.1884,2.1859,2.183,2.1818,2.1787,2.1759,2.174,2.1728,2.1708,2.1707,2.1696,2.171,2.1716,2.1721,2.1722,2.172,2.1726,2.1665,2.1665,2.1665,0,0,2.2027,2.1998,2.1992,2.1958,2.1936,2.1924,2.1886,2.1875,2.1865,2.1816,2.1803,2.178,2.1746,2.174,2.1735,2.1721,2.1737,2.1724,2.1729,2.1727,2.1723,2.1729,2.1734,2.1667,2.1666,2.1666,0,0,2.2063,2.2041,2.2039,2.2018,2.1985,2.1958,2.1958,2.1917,2.19,2.1887,2.185,2.1838,2.1806,2.1783,2.1768,2.1799,2.177,2.1793,2.1823,2.1822,2.1827,2.1831,2.1841,2.1845,2.1795,2.1795,2.1795,0,2.2096,2.2078,2.2041,2.2033,2.2018,2.1976,2.1974,2.1954,2.1916,2.1907,2.1892,2.1852,2.1826,2.1814,2.1822,2.1811,2.1809,2.1797,2.1829,2.1833,2.1836,2.1845,2.185,2.1798,2.1797,2.1797,2.1797,0,2.212,2.2108,2.2111,2.2077,2.2063,2.2058,2.2019,2.201,2.1986,2.196,2.1947,2.1915,2.1888,2.1884,2.1859,2.1869,2.1861,2.1838,2.181,2.1846,2.1853,2.1857,2.1802,2.1801,2.18,2.1799,0,0,2.2186,2.2135,2.2136,2.2121,2.2082,2.2072,2.2065,2.204,2.2032,2.2008,2.2,2.1976,2.1955,2.1938,2.191,2.1909,2.1936,2.1887,2.1885,2.1896,2.1944,2.196,2.1965,2.1917,2.1918,2.1918,2.1946,0,2.2216,2.2202,2.217,2.2165,2.2153,2.2114,2.2108,2.2083,2.206,2.2045,2.2018,2.2001,2.1976,2.1965,2.1963,2.1933,2.1944,2.1931,2.1908,2.1908,2.1917,2.1969,2.1985,2.2013,2.1949,2.195,2.195,0,2.2248,2.2229,2.2224,2.2187,2.2181,2.2176,2.2151,2.2139,2.211,2.2093,2.2075,2.2046,2.2035,2.2011,2.1996,2.1987,2.1977,2.1961,2.1961,2.1956,2.193,2.1964,2.2021,2.2025,2.1955,2.1954,2.1954,0,2.2297,2.2269,2.2262,2.225,2.2208,2.2205,2.2187,2.2158,2.2146,2.2124,2.2115,2.2092,2.2079,2.2062,2.2027,2.2013,2.2015,2.1988,2.1999,2.2,2.2,2.2,2.2055,2.1995,2.1995,2.1995,2.1995,0,2.2332,2.233,2.2284,2.2279,2.2276,2.2239,2.2237,2.2215,2.219,2.218,2.2144,2.2136,2.2091,2.2077,2.205,2.2041,2.2035,2.202,2.2012,2.2022,2.2024,2.2013,2.201,2.1996,2.1996,2.1996,2.1996,0,2.2385,2.2353,2.2344,2.2306,2.2296,2.2295,2.2262,2.2256,2.2231,2.2219,2.2214,2.2175,2.2156,2.2121,2.2092,2.2074,2.207,2.2058,2.2081,2.2076,2.2088,2.2087,2.2137,2.2141,2.2081,2.2081,2.2082,0,2.2409,2.2407,2.2369,2.2361,2.2345,2.2332,2.232,2.2284,2.2273,2.2241,2.2239,2.2219,2.22,2.2173,2.2141,2.2119,2.2105,2.2124,2.2101,2.2111,2.2104,2.2104,2.2103,2.2128,2.2129,2.213,2.213,0,2.2455,2.244,2.2425,2.2405,2.2392,2.2374,2.2353,2.2348,2.2307,2.2296,2.2279,2.2265,2.2237,2.2216,2.219,2.217,2.2143,2.2138,2.2139,2.2148,2.2161,2.2154,2.2093,2.2136,2.2136,2.2135,2.2135,2.2135,2.2493,2.2489,2.2463,2.2447,2.2429,2.2412,2.2405,2.238,2.2365,2.234,2.232,2.2304,2.2276,2.2238,2.2221,2.2207,2.2193,2.2195,2.2195,2.2196,2.22,2.2165,2.2202,2.2202,2.2201,2.2201,2.2201,0,2.2536,2.2518,2.2504,2.2478,2.2466,2.2444,2.2421,2.2412,2.2399,2.2376,2.236,2.2339,2.232,2.2288,2.2266,2.2261,2.2248,2.2256,2.2255,2.2251,2.2213,2.2214,2.2267,2.2267,2.2267,2.2267,2.2267,2.2267,2.2557,2.255,2.2533,2.2517,2.2498,2.2483,2.2472,2.2456,2.2437,2.2417,2.2402,2.2381,2.2354,2.2331,2.2312,2.2303,2.2296,2.2308,2.2294,2.226,2.2253,2.2247,2.2248,2.2307,2.2307,2.2333,2.2333,2.2333]},{"header":{"parameterUnit":"m.s-1","parameterCategory":1,"la1":30.2991,"la2":30.254,"lo1":-89.0895,"lo2":-89.0444,"dy":0.0017,"dx":0.0017,"nx":28,"ny":28,"refTime":"2026-02-05T03:00:00:Z","depth":0,"parameterNumber":3,"parameterNumberName":"V-component_of_WINDS"},"data":[0,0,0,0,0,0,0,0,0,0,0,0,0,0,0,0,0,0,0,0,0,0,0,0,0,0,0,0,0,0,0,0,0,0,0,0,0,0,0,0,0,0,0,0,0,0,0,0,0,0,0,0,0,0,0,0,0,0,-6.9956,-6.9958,0,-7.0094,-7.0095,-7.0097,-7.0007,-7.0003,-6.9999,-6.9995,-7.0133,-7.0141,-7.0148,0,0,0,0,0,0,0,0,0,0,0,0,0,-6.9615,-6.9621,-6.9956,-6.9958,-6.996,-7.0093,-7.0095,-7.0097,-7.0008,-7.0003,-6.9998,-6.9993,-7.0131,-7.014,-7.0149,0,0,0,0,0,0,0,0,0,0,0,0,0,-6.9759,-6.9623,-6.9956,-6.9931,-6.9931,-7.0093,-7.0095,-7.0098,-7.0009,-7.0003,-6.9997,-6.9991,-7.0128,-7.0139,-7.015,-7.0344,0,0,-7.0185,-7.0189,0,0,0,0,0,0,0,0,-6.975,-6.9771,-6.9933,-6.9933,-6.9933,-7.0027,-7.0025,-7.018,-7.0011,-6.9979,-6.9995,-6.9988,-7.0103,-7.0116,-7.0155,-7.035,-7.0356,-7.0186,-7.0192,-7.0197,-7.02,0,0,0,0,0,0,0,-6.9741,-6.9765,-7.001,-6.9936,-6.9935,-6.9913,-6.9927,-7.0054,-7.0074,-6.9982,-6.9975,-6.9993,-7.0101,-7.0145,-7.0158,-7.0358,-7.0185,-7.0195,-7.0202,-7.0207,-7.072,-7.0726,0,0,0,0,0,0,-6.9733,-6.9757,-7.0006,-7.0014,-6.9825,-6.9924,-6.9939,-7.0003,-7.0072,-7.0077,-6.9998,-6.9988,-7.0128,-7.0145,-7.0162,-7.0395,-7.0197,-7.0208,-7.0214,-7.0713,-7.0721,-7.0729,0,0,0,0,0,0,-6.9726,-6.9756,-7.0,-6.9884,-6.9914,-6.9937,-7.0009,-7.0009,-7.0052,-7.0085,-7.0088,-7.0039,-7.0124,-7.0146,-7.03,-7.0398,-7.0213,-7.0223,-7.0705,-7.0715,-7.0725,-7.086,0,0,0,0,0,0,-6.9717,-6.9754,-6.9828,-6.9887,-6.992,-7.0137,-7.0015,-7.0016,-7.0072,-7.006,-7.0124,-7.0128,-7.0121,-7.0283,-7.0311,-7.041,-7.0232,-7.0696,-7.071,-7.0722,-7.0847,-7.0874,-7.0897,0,0,0,0,0,-6.9705,-6.986,-6.9832,-6.9863,-7.0014,-7.0142,-7.0162,-7.0151,-7.008,-7.0155,-7.0176,-7.0126,-7.0383,-7.03,-7.033,-7.0434,-7.069,-7.0706,-7.0721,-7.0836,-7.0868,-7.0896,0,0,0,0,0,0,-6.9811,-6.9867,-6.9837,-7.0016,-7.0076,-7.0127,-7.0221,-7.0185,-7.0265,-7.0251,-7.0233,-7.0248,-7.0409,-7.0436,-7.0343,-7.0626,-7.0525,-7.0547,-7.0602,-7.0633,-7.0658,-7.0648,-7.0241,0,0,0,0,0,-6.9856,-6.9956,-6.9999,-7.0153,-7.0184,-7.0198,-7.0254,-7.024,-7.0301,-7.0325,-7.0357,-7.0417,-7.0511,-7.0574,-7.0662,-7.085,-7.0863,-7.0937,-7.0961,-7.0982,-7.1001,-7.1104,-7.1138,-7.0779,-7.0779,-7.0779,0,0,-6.9948,-6.9991,-7.0055,-7.0175,-7.022,-7.0324,-7.0219,-7.0334,-7.0411,-7.0342,-7.0489,-7.0516,-7.0581,-7.0753,-7.0831,-7.0781,-7.1103,-7.1001,-7.1017,-7.1026,-7.1124,-7.1158,-7.1188,-7.079,-7.0788,-7.0786,0,0,-7.017,-7.0213,-7.0346,-7.0393,-7.0462,-7.0471,-7.0503,-7.0561,-7.0576,-7.0724,-7.0674,-7.0765,-7.0928,-7.0977,-7.1023,-7.1266,-7.1223,-7.1295,-7.1425,-7.1526,-7.1554,-7.1579,-7.1667,-7.1698,-7.1314,-7.1315,-7.1315,0,-7.0276,-7.0433,-7.0419,-7.0538,-7.0593,-7.0536,-7.0671,-7.0717,-7.0811,-7.085,-7.0793,-7.0997,-7.1037,-7.122,-7.128,-7.1319,-7.1355,-7.1288,-7.1551,-7.1576,-7.1599,-7.1683,-7.1716,-7.1323,-7.1322,-7.1321,-7.132,0,-7.056,-7.067,-7.0769,-7.0863,-7.0929,-7.1055,-7.106,-7.1128,-7.111,-7.1124,-7.1276,-7.1322,-7.1419,-7.1461,-7.1443,-7.1643,-7.1611,-7.1553,-7.1452,-7.1642,-7.172,-7.1752,-7.1335,-7.1332,-7.1329,-7.1327,0,0,-7.0853,-7.094,-7.0976,-7.1019,-7.1092,-7.1176,-7.13,-7.1396,-7.1456,-7.1522,-7.1626,-7.1766,-7.1713,-7.1766,-7.1753,-7.1841,-7.2033,-7.1773,-7.1774,-7.1821,-7.2257,-7.2301,-7.2338,-7.2004,-7.201,-7.2015,-7.2252,0,-7.1081,-7.1299,-7.1291,-7.1494,-7.1595,-7.1543,-7.1652,-7.1708,-7.1725,-7.1812,-7.183,-7.193,-7.1852,-7.1884,-7.1969,-7.1991,-7.212,-7.1974,-7.2101,-7.2106,-7.2088,-7.2379,-7.2425,-7.2647,-7.2282,-7.2287,-7.2291,0,-7.1376,-7.1455,-7.1669,-7.1728,-7.177,-7.1868,-7.1956,-7.2041,-7.2104,-7.211,-7.217,-7.2143,-7.2268,-7.2164,-7.2337,-7.2238,-7.2289,-7.2308,-7.2316,-7.2328,-7.2211,-7.24,-7.2717,-7.2751,-7.2339,-7.2335,-7.2332,0,-7.157,-7.1729,-7.1879,-7.1916,-7.1989,-7.2059,-7.2092,-7.2149,-7.2208,-7.2285,-7.2323,-7.2413,-7.2463,-7.2533,-7.2532,-7.2455,-7.2708,-7.2602,-7.2717,-7.2717,-7.2773,-7.277,-7.3103,-7.2804,-7.2804,-7.2803,-7.2802,0,-7.1826,-7.1959,-7.1967,-7.2059,-7.2207,-7.2196,-7.2342,-7.2368,-7.242,-7.2515,-7.2475,-7.2565,-7.2557,-7.2649,-7.2648,-7.2792,-7.2814,-7.2823,-7.2822,-7.2828,-7.2827,-7.2862,-7.2847,-7.2812,-7.281,-7.2808,-7.2807,0,-7.2068,-7.2079,-7.2238,-7.2294,-7.2311,-7.2418,-7.2466,-7.2553,-7.2566,-7.2688,-7.2716,-7.2737,-7.2843,-7.2848,-7.2969,-7.2969,-7.3145,-7.3125,-7.3125,-7.3121,-7.3236,-7.3226,-7.3605,-7.3655,-7.3322,-7.3325,-7.3328,0,-7.2231,-7.2333,-7.2401,-7.2463,-7.2501,-7.2601,-7.2661,-7.2654,-7.2719,-7.2799,-7.2877,-7.2979,-7.306,-7.3232,-7.3257,-7.335,-7.3333,-7.346,-7.3347,-7.3351,-7.3337,-7.3332,-7.3343,-7.3482,-7.3486,-7.3489,-7.3491,0,-7.2521,-7.2521,-7.2611,-7.2703,-7.2777,-7.2849,-7.2916,-7.2968,-7.2969,-7.3044,-7.3153,-7.3216,-7.3341,-7.3443,-7.3534,-7.3567,-7.3531,-7.3527,-7.3559,-7.3567,-7.3562,-7.3568,-7.3186,-7.3518,-7.3516,-7.3514,-7.3512,-7.3511,-7.2729,-7.2818,-7.288,-7.2982,-7.3031,-7.3095,-7.3181,-7.3205,-7.3296,-7.3398,-7.3388,-7.3509,-7.3569,-7.3688,-7.3729,-7.3823,-7.3779,-7.3825,-7.3836,-7.3848,-7.3861,-7.3547,-7.3839,-7.3838,-7.3837,-7.3837,-7.3836,0,-7.3018,-7.3055,-7.3149,-7.3245,-7.3325,-7.3284,-7.3356,-7.3426,-7.3533,-7.3593,-7.3675,-7.38,-7.3899,-7.3933,-7.403,-7.4099,-7.4085,-7.4124,-7.412,-7.4129,-7.3894,-7.3858,-7.4135,-7.4134,-7.4134,-7.4134,-7.4134,-7.4134,-7.3177,-7.3326,-7.3334,-7.3507,-7.3543,-7.3662,-7.3707,-7.3766,-7.3814,-7.3957,-7.4039,-7.4061,-7.4111,-7.4211,-7.4301,-7.4308,-7.4346,-7.4394,-7.4394,-7.4175,-7.4145,-7.4116,-7.4082,-7.4402,-7.4402,-7.4621,-7.4623,-7.4625]}]]